Location: Beloeil
(45.5670°N, 73.2000°W)
Time: 02:36:07
(UTC-04:00)

Daily predictions for brighter satellites

Satellite Brightness Start Highest point End
(mag) Time Altitude Azimuth Time Altitude Azimuth Time Altitude Azimuth
ATLAS 2AS CENTAUR R/B 4.0 02:11:19 42° NNE 02:11:19 42° NNE 02:16:23 10° NE
SL-16 R/B 4.2 02:25:00 29° NE 02:25:00 29° NE 02:29:03 10° N
CENTAUR R/B 4.4 02:53:29 10° NNW 03:00:11 33° NNE 03:07:23 10° E
Lacrosse 5 rocket 4.4 03:05:34 15° NE 03:05:34 15° NE 03:06:26 10° NE
CZ-2D R/B 3.9 03:00:26 10° NNE 03:03:25 28° ENE 03:03:25 28° ENE
SL-16 R/B 4.0 03:07:04 10° N 03:11:56 28° NE 03:16:47 10° ESE
Resurs 1-4 Rocket 3.4 03:15:48 10° NNE 03:19:16 36° NE 03:19:16 36° NE
Cosmos 2227 Rocket 3.3 03:25:42 40° E 03:25:42 40° E 03:30:04 10° NE
Cosmos 2297 Rocket 3.3 03:33:43 37° ESE 03:33:43 37° ESE 03:38:44 10° NE
Cosmos 2344 3.5 03:37:35 81° SW 03:38:05 90° ESE 03:47:06 10° NE
NOSS 3-4 (A) 3.7 03:39:28 66° E 03:39:28 66° E 03:45:31 10° NE
NOSS 3-4 (C) 3.7 03:39:33 66° E 03:39:33 66° E 03:45:37 10° NE
ARIANE 5 R/B 3.7 03:41:13 10° NNE 03:44:13 36° N 03:44:13 36° N
Cosmos 1025 Rocket 4.4 03:56:27 37° ENE 03:56:27 37° ENE 03:59:41 10° NNE
ATLAS 2AS CENTAUR R/B 4.1 03:58:45 28° NW 04:00:32 31° NNW 04:07:34 10° NNE
Cosmos 1605 Rocket 4.0 04:00:01 10° NNW 04:05:26 67° NW 04:05:26 67° NW
RESURS DK-1 3.7 04:08:09 38° NE 04:08:09 38° NE 04:10:52 10° NNE
SL-16 R/B 3.7 04:10:06 28° NW 04:10:06 28° NW 04:13:04 10° NNW
Cosmos 2082 3.6 04:07:17 84° ENE 04:07:17 84° ENE 04:12:47 10° NNE
ADEOS II 4.4 04:08:38 10° NE 04:12:37 21° E 04:16:33 10° SE
MOZ.5/SAFIR/RUBIN 5/SL-8 4.0 04:15:46 68° NNE 04:15:46 68° NNE 04:20:01 10° N
BREEZE-M DEB (TANK) 4.1 04:19:05 23° ENE 04:19:05 23° ENE 04:20:20 10° E
Cosmos 1606 Rocket 4.4 04:13:45 10° N 04:16:55 45° N 04:16:55 45° N
Lacrosse 5 1.9 04:24:09 68° NNW 04:24:09 68° NNW 04:29:05 10° NE
Okean O Rocket 1.9 04:23:32 10° NNE 04:27:55 65° ESE 04:28:31 58° SE
Cosmos 1726 Rocket 3.6 04:23:34 10° N 04:27:59 76° E 04:28:05 75° E
ATLAS 5 CENTAUR R/B 4.3 04:33:20 16° S 04:33:20 16° S 04:34:33 10° S
Cosmos 2298 Rocket 4.5 04:30:00 32° S 04:32:20 59° ESE 04:37:35 10° NNE
Meteor 2-8 Rocket 4.5 04:32:03 54° W 04:32:28 56° WNW 04:38:30 10° N
Cosmos 1666 4.2 04:28:57 10° N 04:30:53 28° N 04:30:53 28° N
CZ-2D R/B 4.5 04:29:27 10° N 04:31:56 35° N 04:31:56 35° N
Cosmos 724 4.3 04:29:24 10° NW 04:35:37 71° WSW 04:41:48 10° SSE
CZ-4B R/B 3.5 04:30:27 10° NNE 04:35:51 63° ESE 04:40:07 17° S
BREEZE-M DEB (TANK) 4.1 04:38:04 47° NNW 04:38:57 58° NNE 04:47:22 10° E
Lacrosse 5 rocket 3.3 04:41:17 20° NNW 04:42:08 21° NNW 04:45:34 10° NE
Cosmos 1892 Rocket 3.5 04:43:23 47° S 04:44:39 86° E 04:49:10 10° N
ADEOS Rocket 3.7 04:37:58 10° NNE 04:45:02 63° E 04:51:21 10° S
CZ-2D R/B 3.0 04:40:39 10° N 04:44:44 32° NW 04:44:44 32° NW
USA 215 3.7 04:39:21 10° SSE 04:45:11 38° SW 04:45:11 38° SW
Cosmos 2150 Rocket 4.2 04:42:56 27° S 04:45:43 67° ESE 04:50:51 10° NNE
Thor Agena Rocket 3.8 04:41:16 10° SSE 04:46:32 72° ENE 04:51:49 10° N
Cosmos 2100 Rocket 3.9 04:40:47 10° N 04:47:02 82° W 04:53:20 10° S
MOS 1-B 4.5 04:41:39 10° N 04:47:14 52° WNW 04:48:28 44° WSW
Meteor 1-19 Rocket 4.2 04:46:46 47° SW 04:48:05 59° WNW 04:53:37 10° N
Cosmos 1174 4.2 04:48:25 42° NNE 04:48:51 45° NE 04:51:58 10° SE
Cosmos 2228 3.3 04:45:08 10° N 04:49:32 70° E 04:53:53 10° SSE
BREEZE-M DEB (TANK) 3.0 04:50:16 52° SSW 04:50:47 59° SSE 04:53:20 10° ENE
Cosmos 1802 Rocket 3.9 04:44:47 10° N 04:50:59 86° E 04:57:07 10° S
Meteor 2-4 Rocket 3.7 04:48:10 28° SSW 04:51:24 76° W 04:57:23 10° N
CENTAUR R/B 3.0 04:44:03 10° NW 04:51:50 88° SW 05:00:11 10° SE
Cosmos 2061 Rocket 3.9 04:46:34 10° N 04:52:55 83° W 04:59:18 10° S
IRS-1C Rocket 4.0 04:50:24 10° N 04:55:41 72° WNW 04:58:22 30° SSW
SL-16 R/B 2.2 04:50:50 10° NW 04:56:22 54° WSW 05:01:52 10° S
Meteor 2-9 Rocket 4.2 04:53:33 10° NNW 04:59:09 62° W 05:04:50 10° S
CZ-4B R/B 3.0 04:55:06 10° N 04:59:32 80° WNW 05:01:53 28° SSW
Resurs 1-4 Rocket 3.3 04:56:16 10° N 05:00:20 25° WNW 05:00:20 25° WNW
Meteor 1-23 Rocket 4.2 05:00:00 24° SSW 05:03:29 66° WNW 05:09:12 10° N
Cosmos 1898 Rocket 3.4 05:04:52 25° SSW 05:07:58 74° WNW 05:13:17 10° NNE
Cosmos 2227 Rocket 3.0 05:07:34 30° W 05:08:54 33° NW 05:14:00 10° N
Cosmos 2098 Rocket 3.0 05:07:27 10° N 05:11:28 86° W 05:16:37 10° S
Okean 2 3.6 05:13:04 38° WSW 05:14:06 47° WNW 05:18:06 10° N
Cosmos 858 Rocket 4.4 05:11:52 21° SSW 05:15:27 71° WNW 05:20:45 10° NNE
Cosmos 1000 Rocket 4.5 05:10:24 10° SSW 05:16:42 68° W 05:23:01 10° N
Cosmos 1937 Rocket 3.4 05:12:42 14° SSW 05:17:11 84° WNW 05:22:31 10° NNE
Cosmos 2297 Rocket 2.8 05:15:33 28° W 05:17:36 38° NW 05:22:51 10° NNE
DELTA 2 R/B (1) 4.1 05:15:21 26° SW 05:18:01 45° S 05:23:18 10° ESE
NOSS 2-2 (C) 4.0 05:15:14 17° SSW 05:18:21 60° ESE 05:23:08 10° NE
Cosmos 2016 Rocket 3.9 05:12:03 10° NNW 05:18:24 72° W 05:24:36 10° S
NOSS 2-2 (E) 3.9 05:16:26 19° SSW 05:19:26 68° SE 05:24:23 10° NE
Tiangong 1 1.4 05:22:33 41° SW 05:22:59 44° S 05:25:54 10° ESE
Cosmos 2173 Rocket 4.1 05:17:33 10° NNW 05:23:22 48° W 05:29:12 10° SSW
CZ-2C R/B 4.5 05:22:06 25° SW 05:23:27 30° W 05:27:34 10° NW
ARIANE 5 R/B 4.4 05:22:27 10° NNW 05:24:33 13° NW 05:24:33 13° NW
EXPRESS MD2 3.7 05:24:17 33° WSW 05:25:21 43° SSW 05:30:43 10° SE
Cosmos 2058 Rocket 3.6 05:22:46 10° NNW 05:26:42 34° W 05:30:38 10° SSW
Cosmos 1459 Rocket 4.3 05:22:00 10° NNW 05:27:59 44° W 05:33:53 10° SSW
SL-08 R/B 4.4 05:21:51 10° NNW 05:28:04 72° W 05:34:22 10° S
NOSS 3-4 (A) 4.5 05:26:55 20° W 05:30:25 33° NW 05:36:24 10° NNE
NOSS 3-4 (C) 4.5 05:27:01 20° W 05:30:31 33° NW 05:36:30 10° NNE
NOSS 8 (A) 4.3 05:28:58 28° SW 05:30:34 72° NW 05:34:13 10° NE
AVUM R/B 4.0 05:30:26 10° NNW 05:32:44 36° ENE 05:34:55 10° SE
Cosmos 1025 Rocket 4.4 05:33:23 19° WNW 05:33:25 19° WNW 05:36:33 10° NNW
USA 116 4.1 05:29:08 10° S 05:34:03 64° WSW 05:38:28 10° NNW
Cosmos 1346 Rocket 3.9 05:33:38 23° W 05:34:08 24° WNW 05:37:27 10° NNW
Okean-O 2.5 05:32:21 10° N 05:36:49 75° WNW 05:41:13 10° SSW
Cosmos 1943 3.8 05:31:44 10° NNW 05:37:19 60° ENE 05:42:52 10° SE
Meteor 2-15 4.4 05:31:32 10° SSW 05:37:32 63° WNW 05:43:33 10° N
COSMO-SKYMED 1 3.7 05:35:36 10° SE 05:39:45 47° ENE 05:43:56 10° N
Cosmos 2123 Rocket 3.9 05:34:35 10° SSW 05:40:46 78° W 05:46:59 10° N
Cosmos 1603 3.7 05:38:31 10° NNW 05:44:09 58° WSW 05:49:42 10° S
RESURS DK-1 4.2 05:44:06 14° WNW 05:45:16 16° NW 05:47:50 10° N
Cosmos 2263 Rocket 3.9 05:45:33 10° S 05:50:31 35° ESE 05:55:32 10° NE
ADEOS II 2.2 05:47:32 10° N 05:52:41 55° WNW 05:57:47 10° SSW
Cosmos 1626 Rocket 3.8 05:50:19 10° SSW 05:54:32 47° WNW 05:58:46 10° N
MOS 1 Rocket 3.4 05:50:39 10° N 05:55:30 76° WNW 06:00:37 10° SSW
Genesis I 3.2 05:54:34 10° SW 05:58:33 67° NW 06:02:33 10° NNE
Cosmos 468 4.5 05:55:09 10° NNW 06:00:20 65° WSW 06:05:30 10° S
BREEZE-M DEB (TANK) 3.8 05:48:57 10° WNW 06:01:19 49° SW 06:05:02 10° SSE
Cosmos 1766 3.8 05:57:49 10° N 06:01:49 64° E 06:05:46 10° SSE
Okean O Rocket 3.3 06:01:17 10° NNW 06:03:47 15° WNW 06:05:57 11° W
SeaSat 1 3.7 06:00:32 10° SE 06:05:12 44° NE 06:09:53 10° NNW
Meteor 1-31 Rocket 2.9 06:02:20 10° N 06:06:12 58° WNW 06:10:03 10° SSW
COBE Rocket 3.9 06:02:34 10° N 06:07:16 58° WNW 06:11:50 10° SSW
Lacrosse 5 3.3 06:03:28 10° WNW 06:07:45 26° NNW 06:12:01 10° NE
Cosmos 1515 4.4 06:07:18 10° SW 06:10:45 32° WNW 06:14:14 10° N
Cosmos 1953 Rocket 4.1 06:09:26 10° S 06:13:51 67° E 06:18:19 10° NNE
USA 129 3.2 06:14:08 10° SW 06:15:02 13° W 06:15:53 10° WNW
CZ-4B R/B 4.4 06:11:58 10° NNW 06:15:59 22° WNW 06:20:02 10° WSW
Cosmos 1602 Rocket 4.5 06:15:25 10° SW 06:19:13 28° WNW 06:23:02 10° NNW
Cosmos 1340 2.9 06:16:02 10° SSW 06:19:43 50° WNW 06:23:27 10° N
Cosmos 1048 Rocket 4.0 06:15:57 10° NNW 06:21:02 64° WSW 06:26:05 10° S
Ariane Rocket 3.2 06:16:20 10° NNE 06:21:29 83° ESE 06:26:35 10° SSW
Lacrosse 5 rocket 3.5 06:19:23 10° NW 06:22:44 20° N 06:25:57 10° ENE
CZ-4B R/B 4.3 06:19:46 10° N 06:23:26 38° WNW 06:26:55 10° SW
Cosmos 2233 Rocket 4.2 06:18:46 10° NNW 06:24:50 53° W 06:30:49 10° SSW
Cosmos 1269 Rocket 4.2 06:20:00 10° NNW 06:25:07 52° WSW 06:30:13 10° S
